铱星星座 168星 (IRIDIUM 168)

导读

IRIDIUM 168是由美国发射的铱星系列卫星,于2019年1月11日成功发射入轨。该卫星属于铱星通信系统的组成部分,主要服务于全球卫星通信领域,可为全球范围内用户提供语音通信、数据传输等服务,补全了铱星星座的通信覆盖能力,支撑起全天候、无死角的全球卫星通信网络运行。

Basic Information
目录编号:
43924
目录名称:
IRIDIUM 168
国际标识:
2019-002C
轨道中心:
EARTH
卫星名称:
铱星星座 168星
卫星全名:
铱星星座 168星 (IRIDIUM 168)
卫星状态:
在轨 (已飞行2804 天)
发射日期:
2019-01-11 UTC
国别 :
美国 (US)
星等 :
--
This satellite is enrolled in the Space Conjunction Data Service (SCDS) and the current flight risk assessment level is: No High Risk
Orbit Information
数据来源 国际轨道数据 AOE轨道数据
星历时间 2026-09-15T21:11:27+0800
10小时前
查看轨道信息
2026-09-16T01:00:00+0800
6小时前
查看轨道信息
半长轴 7155.807km 7155.807km
偏心率 0.0002241 0.0002316
轨道倾角 86.398° 86.398°
近地点辐角 95.613° 95.213°
升交点赤经 315.926° 315.860°
平近点角 264.533° 3.906°
近地点 776.066km 776.012km
远地点 779.274km 779.328km
周期 100.403分钟 100.403分钟
每日圈数 14.342171 14.342169
Detailed Information
平衡模式:
三轴稳定
覆盖范围:
全球
运营商:
铱星通信公司
运营商所在国:
美国
制造商(研发单位):
阿莱尼亚宇航公司
制造商所在国:
意大利
使用方式:
暂无
Satellite Introduction
铱星(Iridium)是由共66个运作中的通信卫星组成的卫星通信系统。这个系统原本规划77个通信卫星,所以用原子序数为77的铱元素来命名。铱卫星允许人们使用手持型电子设备进行全球性的语音及数据通讯。该卫星仍在工作。
2D Orbit Map
3D Orbit Map
Orbit Altitude Analysis Chart
Orbit Inclination Analysis Chart
Orbit Comprehensive Analysis Chart
View Comprehensive Chart
Conjunction Data List
Event ID Objects TCA Miss Dist (km) Collision Risk Probability Collision Risk Index (CRI) Action
CDM_260918-045603-559304-392421
2026-09-18T
04:56:39+0000
1.292 km
极远距离
1.106465E-5 中风险 0.56
CDM_260918-080901-668204-392421
SL-8 R/B (16682)
2026-09-18T
08:09:47+0000
1.584 km
极远距离
5.597341E-6 低风险 0.5
Miss Distance Evolution Trend with All Objects Subscribe to Flight Safety Assessment
Collision Probability Evolution Trend with All Objects Subscribe to Flight Safety Assessment